SL-8 R/B, 15006

Orbit data source: Space-Track

SL-8 R/B, 15006 is space debris in LEO originally from a launch on Mon, 28 May 1984 UTC launched from the Plesetsk Missile And Space Complex (PKMTR). Debris objects in space refer to the collection of defunct objects orbiting the Earth. Examples of debris include non-operational satellites, rocket bodies, and fragments generated from explosions, collisions, or faulty payload assembly.

Loading next visibility...
SL-8 R/B details
Identifier
15006, 1984-052J
Orbit
LEO
Last TLE update4 hours ago
Origin
Flag of CISRVSN (CIS)
ManufacturerOmsk Av. Zav.
MissionSpacecraft
Bus & MotorS3, Unknown motor
Mass1,434 kg wet, 1,434 kg dry
Launch date (UTC)
1984-05-28 (41 years ago)
Launch vehicleUnknown
Launch site
Plesetsk Missile And Space Complex (PKMTR)
Object type
Payload
Rocket body
Debris
Shape & HBRCyl, 6.57 m
Radar Cross Section14.646 m², Large (>1 m²)

Expand to show TLE details & history

TLE from 4 hours ago
0 SL-8 R/B
1 15006U 84052J   25036.52186800 -.00000019  00000-0 -27334-4 0  9992
2 15006  74.0133 123.3299 0133553 272.9907  96.9009 12.23735459818053
Epoch: 2025-02-05T12:31Z
Definitive object data (Epoch: 2025-02-05T12:31:29.395Z)
Latitude10.92188°
Longitude162.6996°
Altitude1,592.074 km
Speed7.068 km/s
True Right ascension08h 25m 56s
True Declination10° 51' 53"
Sunlit
Object was in full shadow at TLE epoch
Visualization TLE readout
Latitude73.47394°
Longitude-94.62428°
Altitude1,694.789 km
Speed6.987 km/s
Apparent Right ascension08h 49m 46s
Apparent Declination41° 54' 18"
Sunlit
Object is in daylight
Visualization observer readout
Local Sidereal Time18:58:29
Azimuth339.614° N
Elevation-4.375°
Doppler factor1
Orbital elements
Apogee altitude1,680.385 km
Perigee altitude1,467.974 km
Semi-major axis7,952.316 km
Eccentricity0.0133553
Inclination74.0133°
RAAN123.3299°
Arg. of periapsis272.9907°
True anomaly98.417°
Mean anomaly96.9009°
Eccentric anomaly97.65928°
Mean motion3.06057 °/min
BSTAR-0.000027334
Orbital period117.63 mins
Loading maneuver chart data...
Loading historical data...
Loading historical data...
Loading historical data...
Loading historical data...
Loading historical data...
Loading historical data...
Loading historical data...

SL-8 R/B Visibility forecast

Observer location: undefined°, undefined

Span
Click to sort rows by Start time (UTC) header in descending order
Start Az.
Max El. time (UTC)
Max El. Az.
Max El.
End time (UTC)
End Az.
18 mins2025-02-05 16:59:36.071Z341.343° N2025-02-05 17:09:36.071Z135.212° SSE44.748°2025-02-05 17:17:36.071Z161.463° S
10 mins2025-02-05 19:03:36.071Z302.395° NW2025-02-05 19:07:36.071Z273.878° WNW18.883°2025-02-05 19:13:36.071Z232.173° WSW
17 mins2025-02-06 06:12:36.071Z174.328° S2025-02-06 06:20:36.071Z95.184° ESE40.309°2025-02-06 06:29:36.071Z26.396° NE
16 mins2025-02-06 08:13:36.071Z242.79° WSW2025-02-06 08:20:36.071Z298.354° NW30.403°2025-02-06 08:29:36.071Z6.467° NNE
10 mins2025-02-06 14:34:36.071Z13.872° NNE2025-02-06 14:38:36.071Z41.233° NE17.154°2025-02-06 14:44:36.071Z81.663° E
18 mins2025-02-06 16:32:36.071Z345.568° N2025-02-06 16:41:36.071Z82.977° E43.248°2025-02-06 16:50:36.071Z152.194° SSE
|